CZ-6A DEB, 55864

Orbit data source: Space-Track

CZ-6A DEB, 55864 is space debris in SSO originally from a launch on Fri, 11 Nov 2022 UTC launched from the Taiyaun Space Center, China (TSC). Debris objects in space refer to the collection of defunct objects orbiting the Earth. Examples of debris include non-operational satellites, rocket bodies, and fragments generated from explosions, collisions, or faulty payload assembly.

Loading next visibility...
Identifier
55864, 2022-151ZL
Orbit
SSO
Country
Flag of CNCN / PRC
Related business
Manufacturer
SAST
Mission
Spacecraft
Bus & Motor
Unknown
Mass
Unknown
Launch date (UTC)
2022-11-11 (4 years ago)
Launch vehicle
Unknown
Launch site
Taiyaun Space Center, China (TSC)
Object type
Payload
Rocket body
Debris
Shape & HBR
Unknown shape, 1.1 m
Radar Cross Section
Medium (>0.1 m² and <1 m²)

Expand to show TLE details & history
Last TLE update: 1 day ago

TLE from 1 day ago
0 CZ-6A DEB
1 55864U 22151ZL  26235.46070961  .00000699  00000-0  36290-3 0  9997
2 55864  98.8253 249.8033 0027300 122.8706 237.5101 14.17834256180753
Epoch: 2026-08-23T11:03Z
TLE epoch observation values (Epoch: 2026-08-23T11:03:25.310Z)
Latitude
-0.00009°
Longitude
112.19142°
Altitude
846.209 km
Speed
7.424 km/s
True Right ascension
16h 39m 12s
True Declination
0° 00' 00"
Sunlit
Object was in daylight at epoch
Visualization orbit readout
Latitude
Unknown
Longitude
Unknown
Altitude
Unknown
Speed
Unknown
Apparent Right ascension
Unknown
Apparent Declination
Unknown
Sunlit
N/A
Visualization observer readout
Local Sidereal Time
03:51:12
Azimuth
Unknown
Elevation
Unknown
Doppler factor
Unknown
Orbital elements
Apogee altitude
849.531 km
Perigee altitude
810.176 km
Semi-major axis
7,207.991 km
Eccentricity
0.00273
Inclination
98.8253°
RAAN
249.8033°
Arg. of periapsis
122.8706°
True anomaly
237.24671°
Mean anomaly
237.5101°
Eccentric anomaly
237.37836°
Mean motion
3.54668 °/min
Orbital period
101.5 mins
BSTAR
0.0003629
Loading maneuver chart data...
Computing Atmospheric mass density...
Loading historical data...
Loading historical data...
Loading historical data...
Loading historical data...
Loading historical data...
Loading historical data...
Loading historical data...

Documentation

Showing up to 5 results
|